Volver al catálogo

FENGYUN 1C DEB

ActivoSSO
NORAD 30573·DEBRIS·🇨🇳 China

Lanzado May 10, 1999 desde Taiyuan Satellite Launch Center

Loading…

Próximos Pases (próximas 24 horas)

TLE

ActualizadoSource: Space-Track

Época: Sep 14, 2026, 15:16 UTC

1 30573U 99025ALP 26257.63669608  .00001822  00000-0  92352-3 0  9996
2 30573  99.2084 309.2728 0087678 217.1977 297.2968 14.15411149   995

Sigue FENGYUN 1C DEB en tiempo real con AllMySat

Download on the App Store